User: anonymous   Login
Location: Oshawa
(43.9000°N, 78.8670°W)
Time: 14:33:25
(UTC-04:00)
Language:

Cosmos 1805 Rocket - Orbit

View from above orbital plane
View from above orbital plane
View from above satellite
View from above satellite

Ground track
Ground track

The orbit data is extracted from the following two-line orbital elements,

1 17192U 86097B   17289.71473519 +.00000105 +00000-0 +98305-5 0  9990
2 17192 082.5050 142.4603 0018310 063.1753 344.3096 14.83520642645605
Epoch (UTC): 16 October 2017 17:09:13
Eccentricity: 0.0018310
inclination: 82.5050°
perigee height: 605 km
apogee height: 631 km
right ascension of ascending node: 142.4603°
argument of perigee: 63.1753°
revolutions per day: 14.83520642
mean anomaly at epoch: 344.3096°
orbit number at epoch: 64560

The dashed part of the orbit path shows where the satellite is in the earth's shadow,  

DLR